Location: Czekanka
(50.4925°N, 19.2643°E)
Time: 07:32:35
(UTC+00:00)

SL-16 R/B - Pass Details

Date: 21 September 2024
Orbit: 842 x 846 km, 71.0° (Epoch: 05 October)

Event Time Altitude Azimuth Distance (km) Brightness Sun altitude
Rises 18:34:05 0° 213° (SSW) 3,394 5.5 -18.1°
Reaches altitude 10° 18:36:32 10° 216° (SW) 2,462 4.7 -18.4°
Maximum altitude 18:42:11 74° 301° (WNW) 882 2.4 -19.2°
Drops below altitude 10° 18:47:52 10° 27° (NNE) 2,475 4.6 -20.1°
Sets 18:50:20 0° 29° (NNE) 3,413 5.3 -20.4°
